Location: Ward Pound Ridge Reservation
(41.2500°N, 73.6000°W)
Time: 17:34:27
(UTC-04:00)

Vanguard 3 - Visible Passes

Search period start: 21 October 2017 00:00
Search period end: 31 October 2017 00:00
Orbit: 510 x 3263 km, 33.3° (Epoch: 20 October)

Date Brightness Start Highest point End Pass type
(mag) Time Alt. Az. Time Alt. Az. Time Alt. Az.
21 Oct 10.5 02:42:14 24° SE 02:42:14 24° SE 02:49:26 10° ESE visible
21 Oct 9.5 04:46:50 26° SW 04:54:05 43° SSE 05:02:26 10° E visible
22 Oct 11.1 01:32:47 11° ESE 01:32:47 11° ESE 01:33:20 10° ESE visible
22 Oct 10.0 03:37:23 36° S 03:39:13 37° SSE 03:48:52 10° E visible
22 Oct 9.1 05:41:59 16° WSW 05:52:49 52° S 06:00:26 10° ESE visible
23 Oct 10.5 02:27:52 26° SE 02:27:52 26° SE 02:34:34 10° E visible
23 Oct 9.5 04:32:27 35° SSW 04:38:09 48° SSE 04:47:18 10° E visible
23 Oct 8.9 06:39:14 10° WSW 06:51:20 53° S 06:58:08 10° ESE visible
24 Oct 11.1 01:18:18 11° ESE 01:18:18 11° ESE 01:18:55 10° ESE visible
24 Oct 9.9 03:22:53 42° SSE 03:23:02 42° SSE 03:33:43 10° E visible
24 Oct 9.2 05:27:28 23° WSW 05:36:59 56° S 05:45:18 10° ESE visible
25 Oct 10.5 02:13:16 27° ESE 02:13:16 27° ESE 02:19:26 10° E visible
25 Oct 9.5 04:17:51 44° SSW 04:22:05 53° S 04:32:05 10° E visible
25 Oct 9.0 06:22:26 10° W 06:35:34 55° S 06:43:00 10° ESE visible
26 Oct 11.2 01:03:37 11° E 01:03:37 11° E 01:03:59 10° E visible
26 Oct 9.9 03:08:11 46° SSE 03:08:11 46° SSE 03:18:25 10° E visible
26 Oct 9.2 05:12:46 29° WSW 05:21:01 59° S 05:30:06 10° ESE visible
27 Oct 10.6 01:58:29 27° ESE 01:58:29 27° ESE 02:04:04 10° E visible
27 Oct 9.5 04:03:04 52° SSW 04:05:54 57° S 04:16:47 10° E visible
27 Oct 9.1 06:07:39 15° W 06:19:42 55° SSW 06:27:47 10° ESE visible
28 Oct 9.9 02:53:21 47° SE 02:53:21 47° SE 03:03:00 10° E visible
28 Oct 9.3 04:57:55 36° WSW 05:04:58 61° S 05:14:49 10° ESE visible
29 Oct 10.7 01:43:36 25° ESE 01:43:36 25° ESE 01:48:33 10° E visible
29 Oct 9.5 03:48:10 59° SSW 03:49:36 61° S 04:01:23 10° E visible
29 Oct 9.3 05:52:45 20° W 06:03:44 56° SSW 06:12:31 10° ESE visible
30 Oct 10.0 02:38:25 46° ESE 02:38:25 46° ESE 02:47:27 10° E visible
30 Oct 9.4 04:42:59 44° WSW 04:48:48 62° S 04:59:28 10° ESE visible
30 Oct 9.4 06:48:56 10° W 07:01:56 42° SSW 07:09:41 10° SE visible
